Weather History for KVIH - January, 2012

Change the Weather History Date:

Monday, January 23, 2012

  Actual Average Record
Temperature  
Mean Temperature 41 °F 31 °F  
Max Temperature 53 °F 41 °F 75 °F (1967)
Min Temperature 28 °F 22 °F -9 °F (1963)
Degree Days  
Heating Degree Days 24 34  
Month to date heating degree days 633 782  
Since 1 July heating degree days 2322 2699  
Cooling Degree Days 0 0  
Month to date cooling degree days 0 0  
Year to date cooling degree days 0 0  
Moisture  
Dew Point 29 °F    
Average Humidity 66    
Maximum Humidity 85    
Minimum Humidity 46    
Precipitation  
Precipitation 0.00 in 0.06 in 1.04 in (2010)
Month to date precipitation 0.60 1.68  
Year to date precipitation 0.60 1.68  
Sea Level Pressure  
Sea Level Pressure 29.82 in    
Wind  
Wind Speed 15 mph (West)    
Max Wind Speed 33 mph    
Max Gust Speed 41 mph    
Visibility 10 miles    
Events      
T = Trace of Precipitation, MM = Missing Value Source: NWS Daily Summary

Daily Weather History Graph

Daily Weather History Graph

Search for Another Location

Airport or City:

Trip Planner

Search our weather history database for the weather conditions in past years. The results will help you decide how hot, cold, wet, or windy it might be!

Date:

Astronomy

Jan. 23, 2012 Rise Set
Actual Time 7:18 AM CST 5:19 PM CST
Civil Twilight 6:50 AM CST 5:47 PM CST
Nautical Twilight 6:18 AM CST 6:19 PM CST
Astronomical Twilight 5:46 AM CST 6:51 PM CST
Moon 7:15 AM CST (1/23) 6:06 PM CST (1/23)
Length of Visible Light 10h 57m
Length of Day
10h 00m
New Moon, 0% of the Moon is Illuminated
Jan 23
New Moon
Jan 30
First Quarter
Feb 7
Full
Feb 14
Last Quarter
Feb 21
New

Hourly Weather History & Observations

Time (CST) Temp. Windchill Dew Point Humidity Pressure Visibility Wind Dir Wind Speed Gust Speed Precip Events Conditions
12:53 AM 52.0 °F - 37.9 °F 59% 29.43 in 10.0 mi WSW 20.7 mph 31.1 mph N/A   Partly Cloudy
1:53 AM 46.9 °F - 39.0 °F 74% 29.51 in 9.0 mi West 28.8 mph 40.3 mph N/A   Overcast
2:53 AM 44.1 °F 34.8 °F 34.0 °F 68% 29.57 in 9.0 mi West 25.3 mph 38.0 mph N/A   Overcast
3:23 AM 42.8 °F 32.7 °F 32.0 °F 66% 29.59 in 9.0 mi West 27.6 mph 41.4 mph N/A   Overcast
3:53 AM 41.0 °F 31.9 °F 30.9 °F 67% 29.61 in 9.0 mi WSW 19.6 mph 27.6 mph N/A   Overcast
4:01 AM 41.0 °F 32.5 °F 30.2 °F 65% 29.61 in 9.0 mi WSW 17.3 mph 24.2 mph N/A   Overcast
4:53 AM 37.0 °F 24.3 °F 28.9 °F 73% 29.68 in 9.0 mi West 31.1 mph 38.0 mph N/A   Overcast
5:53 AM 36.0 °F 25.0 °F 28.0 °F 73% 29.72 in 10.0 mi West 20.7 mph 28.8 mph N/A   Overcast
6:53 AM 35.6 °F 25.5 °F 26.6 °F 70% 29.75 in 10.0 mi West 17.3 mph 26.5 mph N/A   Overcast
7:19 AM 35.6 °F 24.8 °F 26.6 °F 70% 29.76 in 10.0 mi West 19.6 mph 29.9 mph N/A   Mostly Cloudy
7:53 AM 37.0 °F 27.4 °F 28.0 °F 70% 29.79 in 10.0 mi West 17.3 mph 26.5 mph N/A   Overcast
8:21 AM 37.4 °F 28.5 °F 28.4 °F 70% 29.79 in 10.0 mi West 15.0 mph 27.6 mph N/A   Overcast
8:53 AM 37.9 °F 28.9 °F 30.0 °F 73% 29.80 in 10.0 mi West 16.1 mph 24.2 mph N/A   Overcast
9:00 AM 37.4 °F 27.5 °F 30.2 °F 75% 29.80 in 10.0 mi West 18.4 mph 24.2 mph N/A   Overcast
9:53 AM 39.0 °F 31.4 °F 30.9 °F 73% 29.84 in 10.0 mi West 12.7 mph 20.7 mph N/A   Overcast
10:53 AM 39.0 °F 30.3 °F 30.9 °F 73% 29.86 in 10.0 mi WNW 16.1 mph 27.6 mph N/A   Overcast
11:53 AM 42.1 °F 34.2 °F 30.0 °F 62% 29.86 in 10.0 mi West 16.1 mph 24.2 mph N/A   Overcast
12:16 PM 42.8 °F 35.1 °F 28.4 °F 57% 29.84 in 10.0 mi West 16.1 mph 25.3 mph N/A   Mostly Cloudy
12:53 PM 45.0 °F 38.5 °F 30.0 °F 56% 29.85 in 10.0 mi West 13.8 mph 26.5 mph N/A   Scattered Clouds
1:53 PM 46.9 °F - 30.0 °F 52% 29.87 in 10.0 mi WSW 17.3 mph 25.3 mph N/A   Scattered Clouds
2:53 PM 48.0 °F - 28.9 °F 48% 29.89 in 10.0 mi West 16.1 mph 24.2 mph N/A   Scattered Clouds
3:53 PM 46.9 °F - 28.0 °F 48% 29.91 in 10.0 mi WSW 16.1 mph - N/A   Clear
4:53 PM 45.0 °F 38.5 °F 28.0 °F 52% 29.94 in 10.0 mi West 13.8 mph 20.7 mph N/A   Clear
5:53 PM 39.9 °F 35.8 °F 27.0 °F 60% 29.97 in 10.0 mi West 5.8 mph - N/A   Clear
6:53 PM 37.9 °F 34.4 °F 27.0 °F 65% 29.99 in 10.0 mi West 4.6 mph - N/A   Clear
7:53 PM 32.0 °F 27.5 °F 25.0 °F 75% 30.01 in 10.0 mi West 4.6 mph - N/A   Clear
8:53 PM 28.9 °F 23.9 °F 24.1 °F 82% 30.02 in 10.0 mi North 4.6 mph - N/A   Clear
9:53 PM 32.0 °F 26.4 °F 26.1 °F 79% 30.05 in 10.0 mi North 5.8 mph - N/A   Clear
10:53 PM 30.0 °F 23.2 °F 24.1 °F 79% 30.08 in 10.0 mi North 6.9 mph - N/A   Clear
11:53 PM 28.0 °F 22.8 °F 23.0 °F 81% 30.10 in 10.0 mi NNW 4.6 mph - N/A   Clear